EW2131 Weather Reports


time (UTC)temp
F
wind
direction
speed
knots
gust
knots
rain 1hr
in
rain 24hr
in
rain mn
in
humidity
%
barometer
mb
20260505100513 36 187 3.5 6.1 0.02 0.21 0.03 89 1016.0
20260505095515 36 157 2.6 4.3 0.01 0.20 0.02 90 1015.6
20260505094513 36 247 0.0 0.0 0.02 0.20 0.02 89 1016.0
20260505093514 36 202 0.0 1.7 0.02 0.20 0.02 89 1015.9
20260505092512 37 215 1.7 3.5 0.02 0.20 0.02 87 1016.0
20260505091515 37 162 1.7 2.6 0.02 0.20 0.01 87 1015.9
20260505090514 37 180 0.9 1.7 0.01 0.19 0.01 87 1016.2
20260505085613 37 198 4.3 6.1 0.01 0.19 0.01 86 1016.2
20260505084613 37 159 3.5 6.1 0.00 0.18 0.00 87 1016.3
20260505083630 36 157 3.5 7.8 0.00 0.18 0.00 88 1016.6
20260505082715 36 67 0.0 0.0 0.00 0.18 0.00 89 1016.5
20260505081714 36 22 0.0 0.0 0.00 0.18 0.00 87 1016.9
20260505080713 37 22 0.0 0.9 0.00 0.18 0.00 87 1016.6
20260505075728 37 112 0.0 0.0 0.00 0.18 0.00 85 1017.0
20260505074813 38 114 0.0 0.9 0.00 0.18 0.00 84 1016.8
20260505073828 39 336 4.3 7.8 0.00 0.18 0.00 80 1016.6
20260505071815 38 194 1.7 3.5 0.00 0.18 0.00 82 1016.9
20260505070813 38 186 3.5 4.3 0.00 0.18 0.00 85 1016.6
20260505065831 37 157 6.1 7.8 0.00 0.18 0.00 85 1016.7
20260505064914 37 179 4.3 7.0 0.00 0.18 0.00 84 1016.9
20260505064012 38 176 4.3 7.0 0.01 0.18 0.00 84 1017.0
20260505063112 38 182 1.7 3.5 0.01 0.18 0.00 84 1017.0
20260505061112 38 189 0.0 3.5 0.01 0.18 0.00 82 1017.0
20260505060114 38 153 5.2 7.8 0.01 0.18 0.00 85 1016.8
20260505054213 37 160 7.0 10.4 0.00 0.17 0.17 91 1017.3
20260505053310 36 180 2.6 3.5 0.00 0.17 0.17 91 1017.6
20260505052312 36 186 0.9 1.7 0.00 0.17 0.17 91 1017.4
20260505050410 36 171 0.9 1.7 0.00 0.17 0.17 91 1017.6
20260505041527 36 22 0.0 0.9 0.00 0.17 0.17 90 1017.8
20260505040512 36 22 0.0 0.9 0.00 0.17 0.17 90 1017.6
20260505035611 36 345 3.5 5.2 0.02 0.17 0.17 90 1017.8
20260505034611 36 360 0.0 0.0 0.03 0.17 0.17 89 1017.7
20260505033612 35 90 0.0 0.0 0.04 0.17 0.17 89 1017.4
20260505031711 35 184 3.5 4.3 0.14 0.17 0.17 86 1018.0
20260505030712 36 22 0.9 2.6 0.17 0.17 0.17 86 1017.9
20260505025712 36 14 0.9 2.6 0.15 0.15 0.15 84 1018.0
20260505024809 37 22 0.9 2.6 0.15 0.15 0.15 83 1018.1
20260505023812 38 337 0.0 0.0 0.14 0.14 0.13 81 1017.7
20260505022810 40 15 1.7 4.3 0.10 0.10 0.10 77 1017.9
20260505021813 42 357 2.6 7.8 0.04 0.04 0.03 73 1017.7
20260505020812 43 323 3.5 7.8 0.01 0.01 0.00 65 1017.4
20260505015812 44 31 1.7 6.1 0.00 0.00 0.00 62 1016.8
20260505014813 44 22 0.9 2.6 0.00 0.00 0.00 61 1016.6
20260505013813 44 32 5.2 10.4 0.00 0.00 0.00 60 1016.4
20260505012826 45 44 1.7 6.1 0.00 0.00 0.00 59 1016.3
20260505011912 45 337 1.7 5.2 0.00 0.00 0.00 58 1016.4
20260505010910 47 336 6.1 12.2 0.00 0.00 0.00 51 1016.4
20260505005912 49 112 0.9 2.6 0.00 0.00 0.00 46 1016.2
20260505004010 48 142 2.6 3.5 0.00 0.00 0.00 47 1016.0
20260505003011 48 104 2.6 3.5 0.00 0.00 0.00 47 1016.4
20260505001109 48 173 5.2 7.8 0.00 0.00 0.00 50 1016.7
20260504235210 47 146 2.6 6.1 0.00 0.00 0.00 57 1017.2
20260504234211 47 189 3.5 5.2 0.00 0.00 0.00 58 1017.4
20260504233210 48 193 4.3 6.1 0.00 0.00 0.00 53 1017.4
20260504232211 49 201 7.0 12.2 0.00 0.00 0.00 46 1017.6
20260504225409 52 177 9.6 13.0 0.00 0.00 0.00 36 1017.1
20260504224412 55 199 4.3 11.3 0.00 0.00 0.00 31 1016.6
20260504223511 57 165 6.1 8.7 0.00 0.00 0.00 32 1016.2
20260504222526 57 134 4.3 7.0 0.00 0.00 0.00 31 1016.3
20260504221611 58 148 5.2 7.8 0.00 0.00 0.00 31 1016.5
20260504215611 56 143 3.5 5.2 0.00 0.00 0.00 31 1016.6
20260504214611 55 148 7.8 13.9 0.00 0.00 0.00 33 1016.8
20260504213611 53 199 5.2 8.7 0.00 0.00 0.00 36 1016.9
20260504212610 52 206 6.1 10.4 0.00 0.00 0.00 37 1017.3
20260504210612 51 179 7.8 10.4 0.00 0.00 0.00 39 1017.2
20260504205711 53 187 7.8 11.3 0.00 0.00 0.00 34 1017.4
20260504204709 57 170 7.0 11.3 0.00 0.00 0.00 28 1017.5
20260504201810 57 72 0.9 3.5 0.00 0.00 0.00 32 1016.6
20260504200910 58 24 1.7 2.6 0.00 0.00 0.00 34 1016.9
20260504195910 56 65 1.7 4.3 0.00 0.00 0.00 37 1017.2
20260504195009 55 9 5.2 7.8 0.00 0.00 0.00 40 1017.6
20260504194012 54 325 2.6 4.3 0.00 0.00 0.00 41 1017.6
20260504193010 52 74 3.5 7.0 0.00 0.00 0.00 44 1018.0
20260504192012 49 12 6.1 13.0 0.00 0.00 0.00 48 1018.3
20260504191009 48 155 5.2 8.7 0.00 0.00 0.00 52 1018.8
20260504190010 49 192 11.3 17.4 0.00 0.00 0.00 50 1018.9
20260504185011 50 179 12.2 17.4 0.00 0.00 0.00 46 1019.0
20260504184011 52 172 12.2 18.2 0.00 0.00 0.00 39 1018.5
20260504183012 56 172 7.8 17.4 0.00 0.00 0.00 31 1018.2
20260504182012 58 175 7.0 10.4 0.00 0.00 0.00 28 1017.6
20260504181109 57 181 4.3 6.1 0.00 0.00 0.00 27 1017.6
20260504180110 56 201 2.6 5.2 0.00 0.00 0.00 29 1017.8
20260504175112 55 179 4.3 6.1 0.00 0.00 0.00 31 1017.9
20260504173127 53 128 4.3 7.0 0.00 0.00 0.00 30 1018.5
20260504170209 55 165 7.8 11.3 0.00 0.00 0.00 29 1018.5
20260504150810 48 168 7.0 10.4 0.00 0.00 0.00 38 1019.4
20260504141009 45 123 3.5 7.0 0.00 0.00 0.00 42 1019.0
20260504130110 38 203 2.6 3.5 0.00 0.00 0.00 48 1018.6
20260504120310 37 173 4.3 6.1 0.00 0.00 0.00 48 1018.1
20260504110511 37 165 4.3 6.1 0.00 0.00 0.00 47 1018.5